Tracking 20724 objects as of 2-Jun-2020
HD Live streaming from Space Station
objects crossing your sky now

OBJECT H

Track OBJECT H now!
10-day predictions


NORAD ID: 42832
Int'l Code: 2017-042H
Perigee: 591.8 km
Apogee: 610.3 km
Inclination: 97.5 °
Period: 96.6 minutes
Semi major axis: 6972 km
RCS: Unknown
Launch date: July 14, 2017
Source: (TBD)
Launch site: TYURATAM MISSILE AND SPACE COMPLEX (TTMTR)
aabbcc
Your satellite tracking list
Your tracking list is empty




NASA's NSSDC Master Catalog

Two Line Element Set (TLE):
1 42832U 17042H   20153.92725219  .00000011  00000-0  64578-5 0  9998
2 42832  97.5235  36.8007 0013301 341.1295  18.9429 14.91292860156994
Source of the keplerian elements: AFSPC